Theta_e
324 324 323 323 323 323 323 323 323 324 325 324 324 325 328 330 332 332 333 332 332 331 331 330 328 327 327 327 326 326 325 325 321 323 323 323 322 322 322 322 322 322 321
319 319 318 318 318 318 318 318 318 318 317 318 318 319 320 320 321 321 321 322 322 322 324 328 329 329 329 329 329 328 327 327 324 323 323 323 323 324 324 323 322 322 321
317 317 316 316 316 316 315 316 316 316 316 316 315 315 315 315 315 316 317 317 317 317 317 317 317 318 321 323 326 326 326 326 325 323 324 324 325 325 324 324 323 322 322
316 316 315 314 313 313 313 313 313 314 315 315 315 315 315 315 315 315 315 315 315 314 313 313 312 312 312 313 314 314 317 321 323 323 323 323 323 323 323 322 321 321 321
314 313 312 312 311 310 310 309 309 309 310 310 311 311 312 312 312 312 312 312 312 311 311 310 310 311 312 313 314 313 314 314 315 317 320 321 321 320 321 321 321 321 321
313 312 311 310 309 307 307 307 307 308 308 308 309 309 310 310 310 311 311 310 310 309 308 308 309 308 309 310 311 313 313 313 312 313 313 314 316 319 320 320 320 317 313
311 310 308 307 307 306 306 306 305 305 304 304 304 304 304 305 305 305 305 305 304 304 303 304 304 304 305 305 305 306 307 308 309 309 309 309 310 313 315 317 317 318 316
307 306 306 305 304 303 303 302 301 300 300 299 299 299 299 299 299 300 300 299 299 299 300 300 300 301 301 302 303 304 305 306 307 308 309 309 310 311 313 316 317 317 317
303 302 302 301 301 300 299 298 297 296 296 296 296 296 296 296 297 297 297 298 298 299 299 299 299 299 300 300 301 301 302 303 303 303 303 304 306 307 307 309 312 314 315
299 298 298 297 296 295 294 294 293 293 293 294 294 294 294 295 296 297 298 297 297 297 298 298 299 299 300 300 300 301 301 302 302 303 304 305 306 308 311 312 311 312 315
296 296 295 295 294 293 292 292 292 293 293 293 294 294 295 296 297 297 297 298 298 298 298 299 299 299 300 299 300 300 300 301 301 302 303 304 308 310 309 308 309 313 315
293 294 293 292 291 291 291 291 291 291 292 292 293 294 295 296 296 297 297 298 297 298 298 299 299 299 299 299 299 300 300 301 300 300 302 303 305 305 306 306 306 310 314
291 291 291 291 290 291 291 291 291 292 292 292 293 294 295 296 297 297 297 297 297 297 297 297 297 298 298 298 299 300 299 298 299 300 301 303 304 304 305 305 305 310 314
290 290 290 290 291 292 292 292 292 293 293 293 293 294 295 296 296 297 297 297 297 296 296 295 295 295 295 296 298 299 299 300 299 300 302 303 303 304 305 305 306 311 314
290 290 290 290 291 292 293 293 294 296 295 294 294 295 295 296 298 298 297 296 296 296 296 295 295 295 295 297 298 299 301 302 303 303 304 305 304 304 305 306 307 308 311
289 290 290 291 292 292 293 294 298 298 300 300 300 300 301 301 302 302 300 299 298 297 296 295 295 296 297 298 300 301 303 305 307 307 307 307 306 305 305 307 308 309 310
290 290 291 291 292 292 293 294 295 299 301 301 301 302 302 302 304 304 303 302 301 299 297 296 296 297 298 300 302 303 305 307 310 311 311 309 308 307 307 309 311 311 312
289 291 291 291 292 293 295 297 297 299 300 300 301 301 301 304 306 307 306 304 303 301 300 299 299 301 302 305 307 310 313 314 314 315 314 312 309 309 309 310 310 310 314
290 290 290 292 293 295 297 297 298 298 298 299 300 299 299 303 304 306 306 305 303 302 304 304 305 307 309 312 314 315 315 316 317 313 314 313 310 311 311 310 309 309 313
290 290 290 291 292 292 293 295 296 294 294 297 298 298 294 297 299 300 301 303 305 306 306 307 309 311 314 316 316 316 317 317 317 313 312 312 312 312 311 309 309 311 313
289 289 289 290 289 290 291 292 293 293 292 294 294 294 293 294 296 296 297 299 300 301 304 308 311 313 314 314 315 315 316 317 317 315 314 313 312 311 311 312 312 313 317
288 288 288 288 288 288 289 290 290 290 291 291 291 292 292 292 293 294 295 297 299 304 309 312 312 311 309 307 308 312 315 317 316 316 317 316 315 315 316 316 317 318 317
287 287 287 287 287 288 288 288 288 289 289 289 289 290 290 290 291 292 294 295 299 306 311 307 306 306 303 304 307 312 315 317 319 318 318 317 317 317 317 319 318 318 315
287 287 287 287 287 287 287 287 287 287 288 288 288 288 289 289 289 291 292 295 297 303 303 302 303 302 303 306 309 312 314 316 316 317 318 319 317 317 317 318 319 317 313
288 288 288 287 287 287 287 287 287 287 287 287 287 287 287 288 288 289 291 293 295 297 299 299 300 304 306 306 308 311 315 315 314 314 318 320 320 319 319 319 317 316 314
287 287 287 287 287 286 286 286 286 286 286 286 286 286 286 287 287 288 289 290 292 293 294 296 297 300 304 306 308 309 311 313 314 313 313 314 317 320 320 318 317 315 314
Wind_Speed
24 23 22 19 18 17 18 15 14 12 12 13 12 11 8 7 9 11 15 19 21 23 25 27 28 29 31 32 33 33 31 28 10 15 21 25 28 23 23 30 29 26 27
22 22 21 20 19 19 18 16 15 14 13 14 15 15 13 14 11 13 12 13 14 14 14 18 23 27 32 34 33 33 33 32 24 19 22 24 28 31 29 25 24 26 26
20 19 19 20 20 19 19 19 18 17 15 15 16 17 17 18 20 20 19 19 18 17 15 14 13 12 15 19 24 28 29 30 29 27 22 20 24 25 27 26 25 24 29
16 16 17 18 19 19 18 18 18 18 18 19 18 17 16 16 17 18 17 15 15 18 19 20 22 23 24 22 20 18 17 19 20 22 20 19 21 23 25 26 26 28 31
13 13 13 13 15 15 15 14 14 14 14 15 16 16 15 15 15 15 17 19 21 23 23 23 21 19 19 20 21 24 22 20 18 17 15 16 16 17 18 24 26 28 30
13 13 14 15 13 15 16 17 17 18 19 19 18 18 18 17 16 16 18 20 21 22 23 24 24 24 22 19 20 20 18 19 16 13 14 13 17 19 21 24 28 16 4
14 16 16 15 15 15 16 18 19 20 21 23 23 22 22 22 23 24 26 27 29 29 29 32 32 26 25 29 31 32 32 32 32 29 28 26 24 23 24 26 29 24 21
18 16 17 18 19 21 23 24 26 27 29 31 32 33 35 35 36 36 36 36 32 31 32 29 28 28 26 27 26 26 26 27 26 25 27 30 31 30 28 25 23 24 27
19 18 20 21 24 27 30 32 34 34 34 33 30 31 30 31 29 26 23 22 22 22 23 23 23 25 26 25 26 25 26 27 27 28 30 34 37 37 37 31 25 19 13
18 18 20 24 27 27 28 29 27 24 22 22 24 26 24 25 24 20 19 20 21 21 21 22 23 24 23 21 22 22 20 23 21 23 23 25 27 30 28 27 29 23 19
21 24 27 27 26 22 24 24 22 22 22 22 22 24 23 22 22 22 20 20 21 20 18 19 21 26 24 24 22 23 24 26 25 24 23 24 24 21 18 19 21 22 24
25 25 24 23 20 18 21 22 21 20 20 20 20 21 19 20 20 20 20 20 22 20 19 18 21 22 23 23 24 27 29 30 27 24 23 23 21 23 22 22 23 25 25
20 19 19 20 19 19 18 21 20 19 17 18 18 18 21 20 20 19 21 22 21 23 20 22 25 25 25 29 31 33 34 28 24 22 24 26 25 28 30 27 23 24 21
17 18 19 19 19 20 20 20 20 21 19 18 18 18 21 22 24 22 20 21 21 19 19 21 24 30 31 32 34 33 29 29 27 26 26 29 24 23 25 24 25 17 11
17 17 18 19 21 23 22 20 22 23 21 22 24 23 23 24 29 29 28 26 23 22 23 24 23 20 21 23 25 26 27 27 25 30 26 24 22 21 22 24 23 21 15
17 16 18 21 22 21 22 26 23 24 26 25 24 25 27 28 31 27 21 17 16 16 19 18 20 19 21 24 24 26 26 27 29 28 27 25 21 20 19 20 21 18 14
17 17 18 18 19 20 20 19 19 30 26 25 25 26 25 25 27 22 15 15 15 14 16 19 19 21 25 28 26 30 29 30 31 28 26 26 24 20 21 16 15 15 14
14 12 14 17 18 19 19 21 20 17 19 23 29 25 27 23 22 19 18 18 21 17 20 21 23 25 26 25 26 22 20 17 20 9 14 24 25 22 19 16 14 10 10
12 14 17 15 16 18 16 17 18 19 19 21 23 27 30 25 21 21 21 18 17 19 21 22 24 23 23 23 21 18 19 20 13 12 12 19 23 20 17 16 14 13 11
12 13 13 12 13 14 16 18 16 19 19 19 20 21 30 24 21 22 21 19 19 19 22 24 24 22 22 24 27 21 20 23 17 18 18 19 19 17 14 14 14 15 10
12 13 13 13 13 13 13 15 16 17 18 18 19 22 27 21 20 21 22 23 23 24 25 23 23 26 26 24 21 25 19 18 21 17 15 17 17 19 18 17 16 15 12
10 12 13 13 14 14 15 15 16 17 18 19 22 25 28 23 23 24 25 26 29 28 24 23 24 27 25 23 24 23 23 21 21 16 17 13 14 15 16 15 14 12 11
14 15 16 15 15 15 14 15 16 17 18 19 21 24 27 26 25 26 28 30 30 30 26 27 31 33 34 30 26 24 22 20 15 7 8 14 12 12 17 17 16 13 13
19 18 17 16 17 16 16 16 17 18 18 19 22 24 26 27 27 27 30 31 31 28 31 35 35 35 37 38 37 32 27 22 18 10 4 11 18 14 15 13 14 14 15
20 19 19 19 19 18 17 18 19 20 20 21 23 25 26 28 29 32 33 33 31 31 33 32 33 35 32 35 36 35 30 29 31 30 28 18 14 12 11 11 14 15 15
22 22 23 22 22 21 21 20 21 22 22 23 24 25 26 28 29 32 32 32 33 31 31 32 31 33 33 32 31 28 27 26 25 25 24 24 21 15 13 14 16 17 16
Wind_Direction
68 66 60 55 51 46 41 36 29 10 356 360 5 4 337 304 284 289 284 273 267 266 263 262 266 269 271 270 268 270 271 263 241 254 251 257 270 269 263 282 289 286 282
63 54 48 39 27 22 16 11 8 7 359 348 338 336 339 332 329 322 316 310 309 306 306 297 290 288 279 276 274 275 274 272 256 263 257 249 254 269 274 274 278 277 265
61 49 38 27 15 13 2 355 351 345 340 334 327 322 316 312 311 309 307 310 308 308 309 306 310 313 305 298 286 280 272 270 266 259 268 261 256 261 267 269 267 264 274
49 36 26 16 6 4 357 351 340 335 326 321 318 316 313 309 303 302 303 302 303 304 305 306 304 300 295 291 292 296 296 288 278 266 266 263 260 259 257 263 265 268 276
59 41 25 12 4 0 2 4 360 358 352 347 342 337 336 329 324 312 308 306 303 301 301 302 300 292 287 283 282 285 286 281 282 280 272 270 259 250 239 256 259 269 274
40 29 19 14 16 10 0 357 347 344 342 336 334 332 331 326 320 318 310 308 304 309 308 302 300 298 296 291 281 274 271 276 277 278 281 272 266 257 261 263 263 256 258
33 26 29 21 13 6 353 343 341 336 329 328 326 320 311 307 306 303 304 306 305 301 298 297 295 290 285 286 284 281 280 274 270 269 267 266 268 267 271 259 254 249 240
38 31 18 6 357 347 341 337 334 329 324 318 316 314 311 309 307 300 296 294 293 293 292 292 291 289 286 281 280 279 278 276 272 269 265 266 263 264 263 266 266 265 263
27 14 0 351 343 336 331 327 324 324 322 320 318 314 310 310 310 305 302 302 300 297 301 300 297 293 291 290 284 280 278 277 278 275 272 269 266 264 263 263 264 265 263
9 356 344 338 335 332 328 329 330 332 325 318 315 315 312 308 315 314 315 311 299 298 296 294 299 295 295 291 282 277 275 278 285 288 288 283 279 266 260 252 250 242 244
345 340 337 337 338 337 333 336 329 325 317 311 307 311 310 311 311 309 312 308 299 292 287 288 288 291 288 289 283 281 273 285 283 282 281 284 278 261 267 275 276 252 236
342 340 343 345 344 338 339 334 326 320 315 315 315 311 309 311 313 307 300 298 302 298 296 283 296 302 293 288 285 283 282 283 279 275 270 264 261 262 264 275 283 274 261
350 349 347 348 346 343 335 330 329 322 314 311 306 304 306 310 304 300 297 300 302 300 297 298 296 293 292 290 287 288 288 279 263 255 253 253 249 254 265 270 272 265 262
350 350 347 342 338 347 340 338 328 318 310 301 299 300 304 304 300 298 295 300 302 298 296 298 296 296 294 289 289 289 283 273 251 245 246 249 249 243 245 251 248 249 230
349 348 339 338 338 340 341 335 330 327 312 295 298 299 297 299 303 310 302 297 291 294 303 299 290 286 286 284 279 272 269 261 247 242 237 239 233 229 231 240 241 240 219
341 334 335 339 335 333 331 331 346 338 343 343 337 326 325 323 330 330 329 312 301 298 292 281 285 284 281 281 276 276 270 259 251 242 232 224 219 211 213 219 226 221 212
338 337 336 331 328 323 323 318 315 344 358 2 353 355 349 336 332 334 320 317 306 296 280 278 276 275 273 275 270 264 264 263 259 250 231 210 205 201 198 197 203 205 204
343 339 334 331 331 330 331 331 325 326 328 335 353 352 351 357 3 352 340 321 316 316 292 281 278 280 278 278 281 280 282 286 274 261 244 200 186 183 184 191 193 199 199
348 346 340 338 344 348 348 343 339 341 338 337 346 353 359 9 11 12 6 353 322 311 310 296 294 300 310 317 323 335 347 358 26 37 40 150 158 162 171 186 183 199 203
356 353 352 354 349 352 354 354 348 350 345 346 351 352 350 355 354 349 345 342 334 325 317 313 323 336 345 343 343 351 359 19 42 67 70 103 127 142 148 162 176 184 180
5 6 11 10 8 8 4 356 356 354 349 347 346 345 356 352 345 341 339 337 333 331 328 331 349 355 1 354 354 355 4 26 50 86 89 111 136 150 162 164 168 173 156
21 23 21 14 13 14 16 9 3 1 354 351 344 347 359 358 352 347 343 343 346 347 357 16 10 17 12 10 10 17 26 41 50 67 92 117 133 147 154 156 155 147 139
48 41 34 26 24 23 19 18 10 4 359 355 350 352 356 355 354 352 350 354 360 12 27 42 41 33 32 38 40 33 25 20 25 39 80 100 104 130 144 137 146 136 136
53 45 39 34 32 29 23 18 16 13 7 3 0 358 358 357 356 359 5 8 16 17 24 36 35 31 33 39 43 47 50 55 55 47 51 135 145 133 137 141 153 143 142
52 46 43 41 37 32 28 26 23 19 15 12 6 3 3 4 4 9 14 16 21 23 27 29 28 27 26 29 36 43 60 62 67 68 72 92 121 157 174 156 151 145 148
55 53 49 45 40 35 31 28 26 24 21 16 12 10 10 9 9 12 14 17 21 22 23 23 25 22 24 26 27 34 42 51 56 62 63 67 74 91 112 134 147 151 158